Location: Unspecified
(0.0000°N, 0.0000°E)
Time: 12:34:44
(UTC+00:00)

Transit 2A Rocket - Pass Details

Date: 12 December 2018
Orbit: 588 x 915 km, 66.7° (Epoch: 15 July)

Event Time Altitude Azimuth Distance (km) Brightness Sun altitude
Rises 19:53:12 0° 324° (NW) 3,524 8.5 -27.2°
Reaches altitude 10° 19:55:54 10° 316° (NW) 2,594 7.9 -27.8°
Maximum altitude 20:01:26 37° 251° (WSW) 1,387 6.7 -29.1°
Drops below altitude 10° 20:06:53 10° 185° (S) 2,552 8.0 -30.3°
Sets 20:09:32 0° 176° (S) 3,460 8.7 -30.9°
